Powrót do katalogu

THURAYA 2

AktywnyŁącznośćGEO
NORAD 27825·PAYLOAD·🇦🇪 UAE

Wystrzelony Jun 10, 2003 z Sea Launch Platform

Loading…

TLE

ŚwieżeSource: Space-Track

Epoka: Sep 14, 2026, 12:18 UTC

1 27825U 03026A   26257.51256198  .00000118  00000-0  00000-0 0  9994
2 27825   8.9762  31.5254 0000551  63.8852 126.6250  1.00273582 85240

Śledź THURAYA 2 w czasie rzeczywistym z AllMySat

Download on the App Store